Theta_e
339 339 339 338 337 337 336 336 335 334 333 333 334 335 335 335 336 337 337 337 336 336 335 335 335 334 334 334 335 334 334 333 332 332 331 332 332 329 328 328 327 327 327 327 328 329 328 327 326 324 323 324 324 324 324 324 323 322 323 324 325 325 324 324 324 324 324 324 323 323 323 322 322 322 322 322 323 324 323 322 321 321 322 322 321
339 339 338 338 338 337 336 336 335 334 334 333 333 335 335 335 336 336 336 336 336 336 335 335 334 334 333 334 335 334 333 333 332 332 331 332 333 330 328 326 326 327 327 328 329 329 328 326 325 324 324 324 324 323 323 323 322 321 322 323 323 323 323 323 322 323 323 323 322 322 322 322 321 321 321 321 322 323 323 322 321 321 321 321 321
339 339 338 338 338 337 337 336 335 335 334 334 334 334 335 334 335 336 336 336 336 336 335 334 334 334 334 334 335 334 333 333 333 332 332 332 332 331 328 325 325 327 328 329 329 327 327 326 326 326 325 325 324 323 323 323 322 321 321 322 322 321 321 322 321 322 322 322 321 321 321 321 321 321 321 321 321 322 321 320 320 320 320 321 321
341 340 338 338 338 337 337 336 335 335 334 334 334 334 335 335 335 336 336 336 337 336 336 335 334 334 334 334 334 333 333 333 333 332 332 332 331 331 329 327 327 327 328 328 326 326 326 327 327 326 325 324 323 323 323 322 322 321 321 321 321 321 321 321 321 321 321 321 321 321 320 320 320 320 320 320 320 319 318 318 319 319 320 320 320
339 338 338 338 337 337 337 338 336 335 334 334 334 334 334 334 334 335 336 336 336 336 336 336 335 335 334 334 334 334 334 333 333 332 332 331 331 331 330 329 328 328 328 326 325 326 327 327 327 326 325 325 324 323 323 322 322 321 321 321 321 321 320 320 319 320 320 320 320 320 320 320 320 319 319 319 319 319 318 319 319 319 319 320 319
337 336 337 337 336 334 334 337 338 337 336 335 334 334 333 333 334 335 335 335 336 336 336 336 335 335 334 334 334 334 334 333 333 333 332 331 331 331 331 331 330 329 328 326 325 326 326 326 326 326 325 325 324 324 323 323 323 321 321 320 320 320 320 320 319 320 320 320 320 320 320 320 319 319 319 320 320 320 320 320 320 320 320 320 320
337 336 336 336 337 333 330 334 338 338 338 336 334 334 333 333 333 334 335 335 335 335 335 335 334 334 334 334 334 334 334 333 333 332 332 331 331 332 331 330 330 329 328 327 326 325 325 325 324 324 324 324 324 324 323 322 322 321 321 320 320 321 321 320 319 320 320 319 319 320 320 319 319 319 319 320 321 321 320 320 320 320 320 320 321
337 336 335 335 336 334 332 333 336 337 337 337 336 334 334 333 333 334 334 334 335 335 335 335 335 334 333 333 334 334 333 333 333 332 332 331 331 332 331 330 330 329 328 328 327 325 323 323 323 321 322 324 324 324 323 322 322 321 320 320 320 320 320 320 319 319 319 319 319 320 319 320 320 320 320 319 321 321 321 321 321 321 320 320 320
337 336 335 335 334 335 334 333 334 335 336 337 336 334 334 334 334 334 334 334 334 335 335 335 335 334 334 333 334 334 333 333 333 333 333 332 331 331 330 330 329 328 328 329 329 326 324 324 323 322 322 323 323 323 323 323 322 321 321 320 320 320 320 320 320 320 320 320 320 320 320 320 321 322 321 320 320 321 321 321 321 321 321 321 321
336 336 334 334 335 335 335 334 334 334 334 336 336 335 335 335 335 335 335 335 334 335 335 335 334 334 333 333 333 334 334 334 333 332 333 332 331 331 330 330 330 328 329 329 329 328 327 326 325 325 324 324 323 323 323 323 323 322 321 320 320 320 321 321 320 320 320 320 320 320 320 321 322 322 322 321 320 321 321 322 321 322 322 322 322
336 336 334 334 334 334 335 335 334 334 334 334 335 335 335 336 336 335 335 335 335 335 335 335 334 333 333 333 334 334 334 334 333 332 333 332 331 331 330 330 330 328 329 330 330 330 329 328 328 328 327 326 325 324 323 322 323 322 321 321 322 321 321 321 320 320 320 320 320 321 321 321 321 321 322 322 321 321 322 323 323 323 323 323 323
335 335 334 334 334 334 334 335 335 335 334 333 334 335 336 336 336 336 336 335 335 336 336 335 334 334 334 334 334 334 334 334 333 333 332 331 331 331 331 331 330 329 329 330 331 331 331 330 330 330 328 327 326 325 323 321 322 323 322 322 322 321 320 320 320 319 320 321 321 321 321 320 320 322 322 322 322 323 323 324 323 323 322 322 321
336 335 334 334 334 334 334 335 335 335 334 332 333 335 336 336 336 336 336 336 336 336 336 334 335 335 334 334 334 334 334 334 334 333 332 332 331 332 332 332 331 330 330 330 330 331 331 330 330 330 329 328 327 327 324 320 321 324 324 323 323 322 321 321 320 319 320 321 322 322 322 321 321 323 323 323 323 323 323 323 323 323 322 320 317
335 335 334 334 334 334 334 334 335 335 334 333 332 333 335 336 335 335 335 335 336 337 336 335 335 335 334 334 333 333 334 333 333 333 333 333 332 332 332 332 333 332 331 331 330 330 331 330 330 330 330 329 328 328 326 323 321 322 322 323 323 323 322 321 320 320 320 321 323 323 322 322 322 323 323 323 323 323 323 323 323 322 320 318 316
335 335 334 334 334 334 334 334 334 334 334 334 333 333 334 335 335 335 336 335 335 336 336 335 334 334 333 333 332 333 334 333 333 333 333 333 331 332 332 332 333 333 331 331 330 330 331 330 330 330 330 330 330 328 328 327 325 322 321 321 322 322 322 322 321 320 320 322 322 323 322 322 322 323 323 323 323 323 323 323 322 321 319 318 317
335 335 335 334 334 334 334 334 333 333 334 334 334 334 334 335 335 335 334 334 335 335 335 335 334 332 332 333 333 333 333 333 333 333 333 332 332 332 332 332 332 332 332 332 331 330 331 331 330 330 330 330 330 330 329 328 326 324 322 321 320 321 322 322 321 319 319 322 322 322 323 322 322 323 323 322 322 323 323 322 321 320 320 319 317
335 335 335 334 334 334 333 334 334 333 333 335 334 334 334 335 336 335 332 332 334 334 334 335 334 334 332 332 333 333 333 334 333 332 332 332 333 332 331 332 332 332 332 331 331 331 331 331 331 330 330 330 330 330 330 328 327 326 325 323 320 321 322 323 322 319 318 322 323 322 323 322 322 322 323 323 322 323 323 322 321 321 319 317 313
335 334 334 334 334 333 333 334 334 334 334 334 334 333 334 335 335 335 333 333 334 334 334 334 334 335 334 332 333 332 332 333 332 332 333 332 332 332 331 332 332 332 331 331 331 331 330 330 331 330 330 330 330 330 330 329 328 327 327 324 320 319 321 323 323 320 319 322 323 323 323 322 321 322 323 323 323 323 323 322 321 320 318 314 309
335 335 334 334 334 334 333 333 334 334 334 334 334 333 334 334 333 334 333 333 333 333 334 334 333 334 334 334 334 333 331 332 332 332 333 332 332 332 332 332 332 331 331 331 331 331 330 330 330 330 330 330 330 330 329 329 329 328 327 325 322 321 320 320 323 323 320 322 323 322 323 322 322 323 323 323 323 322 323 322 321 320 317 311 305
336 335 335 334 334 334 333 334 333 334 334 334 334 333 333 333 333 333 333 333 332 332 332 332 332 333 334 334 333 332 332 334 333 332 333 332 332 332 332 332 332 332 331 331 331 331 331 330 330 330 330 330 329 329 329 329 329 328 327 325 324 325 321 317 321 326 323 321 323 323 323 324 325 324 324 324 323 322 322 321 320 320 316 308 303
335 335 335 334 334 334 333 334 333 333 334 334 334 334 333 333 333 333 333 333 332 332 331 332 333 333 333 334 333 332 332 334 333 333 332 331 331 331 332 332 332 331 331 331 331 330 331 330 330 330 330 329 329 329 329 329 328 328 328 326 325 326 324 318 318 324 325 323 323 325 325 326 325 325 325 325 323 321 319 319 319 318 313 305 302
335 334 334 334 334 333 333 333 333 332 333 333 333 333 333 332 333 332 332 333 332 332 331 332 333 333 332 332 332 332 332 333 333 333 332 331 331 331 332 333 332 331 330 330 331 331 330 330 330 330 329 329 329 329 329 329 328 328 328 327 326 326 325 322 318 319 323 325 325 324 325 326 326 325 325 324 322 318 315 316 318 315 308 303 301
335 334 333 333 333 333 333 332 333 332 332 333 333 333 333 333 332 332 331 331 332 331 331 331 332 332 330 330 331 332 333 334 333 332 332 332 331 331 332 332 331 331 330 330 331 330 330 330 330 330 329 329 329 329 329 329 328 328 328 326 326 326 325 325 324 320 320 322 324 325 324 325 326 325 324 324 320 313 310 313 314 310 304 301 300
334 334 334 333 332 332 332 332 332 332 332 332 332 332 333 333 332 332 332 331 331 331 331 331 331 331 331 331 332 332 333 333 332 331 331 331 331 332 332 331 330 331 330 331 331 330 330 330 330 330 330 330 329 329 329 329 328 328 328 325 325 326 325 325 326 325 321 318 320 323 324 326 326 325 325 323 316 311 310 310 308 305 302 300 300
334 334 334 333 332 332 332 332 331 331 330 331 332 332 332 333 332 332 332 332 332 332 332 332 331 331 332 332 331 331 331 331 330 330 331 331 331 331 331 330 330 330 330 331 330 330 330 330 330 329 329 329 329 328 328 328 328 327 327 326 325 325 326 325 325 326 325 320 318 319 322 325 325 325 324 318 311 312 314 309 303 302 301 299 300
333 334 333 332 332 332 332 332 331 330 330 331 332 331 332 332 332 332 332 332 333 332 332 332 331 332 333 332 330 330 330 330 330 331 332 332 331 331 331 331 331 330 330 330 329 330 330 329 329 328 329 329 328 328 327 327 328 326 325 326 326 325 326 326 325 325 326 324 320 319 321 324 324 323 320 313 309 313 312 305 301 301 300 300 301
333 333 333 332 332 332 332 331 331 330 331 331 331 331 332 332 332 332 332 332 332 332 331 331 331 332 332 331 331 331 330 330 331 331 331 331 331 331 331 331 330 330 330 329 329 330 329 329 329 328 328 328 327 327 327 327 327 325 325 326 326 326 325 325 326 325 325 325 323 322 323 323 322 321 316 309 309 311 307 302 301 300 299 300 303
333 333 333 332 332 332 332 331 331 331 331 331 331 331 332 332 332 332 332 332 332 331 330 330 331 331 331 331 332 331 331 331 331 332 331 331 331 331 331 330 330 330 329 329 330 329 329 329 329 328 327 327 326 326 325 326 326 325 325 326 326 326 325 325 325 325 325 325 324 324 323 320 318 316 312 308 309 308 303 301 300 300 300 301 303
333 332 332 332 331 331 332 331 331 331 332 332 332 332 332 332 331 331 332 332 332 331 331 331 332 332 332 333 332 331 331 332 331 332 332 331 331 331 331 330 330 329 329 330 330 329 329 329 328 328 327 326 326 326 325 325 325 324 325 325 325 326 325 324 325 325 324 324 324 324 323 320 317 313 310 308 308 305 302 301 300 301 301 302 304
333 332 330 330 331 332 332 332 332 332 333 333 332 333 332 332 332 331 332 332 331 331 332 332 332 332 332 332 332 331 332 332 332 332 332 332 332 331 330 329 329 329 328 329 330 329 329 329 328 327 327 327 326 325 325 324 323 324 324 325 325 325 324 324 324 324 323 324 324 323 322 320 317 313 310 307 306 304 301 301 301 301 301 303 304
332 331 330 330 331 332 332 333 333 333 333 333 333 333 333 333 332 332 332 332 331 331 331 332 332 331 332 333 332 331 331 332 332 332 333 333 332 331 331 330 330 330 329 329 329 329 329 329 328 327 327 326 325 324 324 323 322 323 323 324 324 324 323 323 325 324 322 323 323 322 322 320 317 313 309 306 305 303 302 301 301 301 302 303 303
332 331 330 330 331 332 332 333 333 332 333 333 332 332 333 333 333 333 333 332 332 331 331 331 331 331 332 331 330 331 332 332 332 332 333 333 333 331 330 330 330 330 329 329 330 329 329 329 328 327 327 325 325 324 323 323 322 321 322 322 322 322 322 323 324 323 322 321 321 322 321 320 319 314 308 305 305 303 302 301 301 301 302 302 302
331 331 331 331 331 331 332 332 332 332 332 333 333 332 333 333 333 333 333 333 332 331 330 331 332 331 331 330 330 331 333 332 332 332 332 333 332 331 330 330 330 331 330 329 329 330 330 329 328 327 326 325 325 324 323 323 322 320 321 322 321 321 321 321 322 322 322 321 321 321 321 320 319 314 306 304 304 303 302 302 302 302 302 302 302
331 331 332 332 331 331 332 332 332 332 332 332 333 333 333 333 334 333 332 332 331 331 332 332 332 332 331 331 331 332 332 332 332 332 331 331 331 330 330 329 329 331 331 328 328 329 329 328 327 326 326 325 324 324 324 324 323 321 321 321 321 321 320 320 321 320 320 321 320 319 319 318 315 310 304 303 304 304 304 304 304 304 304 304 304
331 332 332 332 331 331 331 332 333 332 332 333 333 333 333 334 334 333 332 331 331 332 333 333 333 332 332 331 331 332 332 332 332 331 330 330 329 329 330 330 329 329 330 329 327 326 325 325 325 324 324 325 324 323 323 323 323 322 321 321 320 320 319 319 320 318 316 318 318 318 318 316 311 306 303 304 305 305 305 306 306 306 307 307 307
332 332 331 331 331 331 331 331 332 332 332 333 332 332 332 333 333 332 330 330 330 331 333 333 333 333 333 332 332 332 332 332 332 331 330 330 329 329 329 329 330 329 329 330 328 325 324 324 324 323 324 325 323 323 322 322 322 321 320 321 319 318 318 318 319 318 313 312 314 315 315 314 310 306 303 304 305 306 307 307 308 308 309 309 309
331 331 331 331 332 331 330 330 330 331 331 331 331 331 331 330 329 328 328 328 329 329 332 333 333 333 333 332 332 332 332 332 332 331 330 331 330 329 329 328 329 330 330 330 328 326 325 324 325 324 324 325 324 322 322 321 321 320 319 320 319 318 318 316 317 317 311 307 308 310 309 309 307 305 303 304 305 307 307 308 308 309 309 310 310
331 331 331 331 331 331 330 329 329 330 331 331 331 331 330 329 329 328 327 328 329 329 331 332 332 332 333 332 332 332 332 332 333 332 330 330 330 329 329 328 328 330 330 330 329 328 326 325 325 325 325 325 324 323 322 321 321 319 318 319 318 318 318 317 315 315 312 308 307 307 306 306 306 305 304 304 304 306 307 308 308 309 310 310 310
331 331 331 330 330 331 330 329 329 329 329 330 331 331 330 329 328 328 328 329 329 328 329 331 332 332 333 332 332 332 331 331 331 331 331 331 330 330 330 330 328 329 330 330 329 328 327 326 325 326 326 326 326 325 324 322 322 320 319 318 317 317 318 317 316 316 314 313 310 307 306 305 305 305 305 304 304 304 305 307 308 309 309 310 310
330 331 331 330 329 329 328 327 327 328 329 329 330 330 328 327 327 327 328 328 328 327 328 329 332 332 332 332 332 331 331 331 330 330 330 331 331 330 331 331 330 330 330 329 328 328 327 326 326 326 326 326 327 326 324 323 323 322 320 319 318 318 318 317 317 316 316 315 314 312 310 308 307 307 306 305 305 304 304 305 306 307 308 309 309
329 329 329 329 328 327 326 326 326 328 329 329 329 327 327 326 326 327 327 327 326 327 327 328 330 332 332 332 332 331 330 330 330 329 330 330 330 330 330 330 330 330 329 328 328 327 326 326 326 326 326 326 326 326 325 324 324 323 323 321 320 319 320 318 317 316 315 315 315 314 314 313 312 312 311 310 309 308 306 306 305 305 305 306 307
326 327 327 326 326 325 325 324 325 327 327 327 326 325 326 325 325 326 326 325 325 325 325 326 328 330 331 330 330 329 328 328 327 327 326 326 327 328 328 328 329 329 328 327 327 326 325 325 325 325 324 324 325 325 325 324 324 324 324 322 321 320 320 319 318 317 315 314 314 314 314 314 314 314 314 313 313 312 311 310 309 308 307 306 306
324 324 324 323 323 324 324 324 324 325 325 325 325 324 325 325 325 325 325 324 324 324 325 326 327 328 328 327 327 326 325 323 321 321 321 320 321 322 322 324 327 328 327 326 325 324 324 323 323 323 323 323 325 324 324 324 324 323 323 322 321 321 320 319 319 318 315 314 315 316 316 315 315 315 315 315 314 314 313 313 312 310 309 307 306
322 322 321 322 322 322 322 322 323 323 324 325 325 325 325 324 323 324 324 323 323 324 325 325 326 327 327 326 326 324 321 319 318 318 318 318 318 319 319 321 323 324 324 325 325 325 324 323 323 323 323 323 324 323 323 323 323 322 322 321 320 320 320 319 320 319 316 316 317 318 318 317 316 317 317 315 314 313 312 312 311 310 310 309 308
319 319 318 320 321 320 320 319 320 321 323 324 324 323 322 320 319 321 323 323 324 325 325 326 326 327 326 326 325 322 318 318 319 318 318 318 318 318 318 318 318 319 319 320 321 322 323 324 324 324 324 324 324 322 321 320 321 321 321 320 320 320 321 320 321 320 318 317 318 319 319 318 316 317 317 315 314 313 312 311 311 311 311 311 311
316 317 317 317 318 318 317 317 318 319 320 321 320 319 318 318 318 321 324 325 326 326 327 326 326 326 325 324 323 322 322 322 321 319 318 319 320 320 321 321 320 319 318 317 317 319 322 324 324 325 325 325 325 322 319 319 322 323 323 322 322 322 322 322 322 320 318 317 318 319 319 318 316 317 317 315 314 314 312 311 311 311 311 311 311
314 316 317 316 316 317 317 317 317 317 318 318 317 317 318 318 320 324 327 327 328 327 326 326 326 325 325 325 324 324 324 323 323 322 322 323 324 324 324 324 322 320 319 319 319 320 322 324 325 324 323 323 323 322 320 321 323 323 322 323 322 322 322 320 319 319 317 316 316 317 318 317 316 316 316 315 314 314 312 310 310 309 310 310 310
313 315 317 316 315 316 317 317 316 317 317 318 318 318 319 320 322 326 327 326 325 325 323 323 323 323 324 325 324 322 320 320 322 324 324 324 324 324 324 323 321 320 320 320 320 321 321 322 322 322 321 320 320 320 319 320 320 320 320 320 320 320 320 319 319 318 317 315 315 316 317 316 315 316 315 314 314 313 311 310 309 308 308 309 309
310 312 314 314 313 314 316 315 314 315 317 318 318 319 320 321 323 323 323 322 321 319 318 319 319 319 320 321 322 322 320 320 321 322 323 323 323 323 323 322 321 320 319 320 320 320 320 320 320 320 320 319 319 318 318 318 318 319 320 320 320 319 319 318 318 318 316 314 313 314 315 315 315 315 314 313 313 311 311 310 307 305 306 307 307
306 308 310 312 312 313 313 313 312 313 315 317 318 318 319 319 320 319 318 317 315 314 314 315 316 317 317 319 320 321 320 320 319 320 321 323 324 323 322 321 320 319 318 318 319 319 319 319 318 318 318 317 317 317 317 317 316 317 319 319 318 318 317 317 316 316 315 313 310 311 314 314 314 313 312 312 312 311 309 308 307 305 305 305 305
304 305 308 309 311 311 311 311 311 311 312 313 314 315 316 316 316 316 315 315 314 314 314 314 315 316 317 317 317 318 318 318 319 319 319 320 322 322 321 320 319 318 317 317 317 317 317 316 316 316 317 316 316 316 316 316 315 315 316 316 315 316 315 315 314 315 315 311 308 310 313 312 311 311 310 310 312 311 308 307 306 305 305 305 305
Wind_Speed
10 11 12 12 12 12 13 12 12 12 12 12 13 14 13 13 13 13 12 11 11 10 9 8 7 6 6 7 7 7 6 5 5 5 6 8 8 7 7 7 8 7 6 6 5 6 7 8 7 7 7 6 7 7 6 6 6 7 6 5 5 5 5 5 5 5 4 5 5 5 6 7 7 7 8 9 10 10 10 10 11 11 12 13 15
9 10 10 11 12 12 13 12 13 12 12 12 12 13 13 13 13 13 12 12 11 10 9 8 7 7 6 7 7 6 6 5 5 5 6 7 7 6 5 6 8 9 7 6 6 6 7 6 5 6 7 7 7 7 6 6 6 7 6 5 5 4 4 4 4 4 4 4 5 6 7 7 8 8 9 10 10 10 10 10 10 11 11 12 13
10 9 10 11 12 12 12 12 13 12 12 11 11 12 13 13 13 13 12 11 11 10 9 8 8 7 6 7 6 6 6 5 5 5 5 6 7 7 5 5 8 9 8 7 6 5 4 5 6 7 7 7 6 6 6 6 6 6 6 5 5 5 5 5 5 5 5 5 6 7 8 8 9 9 10 11 10 10 9 10 11 11 11 11 12
10 9 9 10 11 11 11 12 13 13 13 12 11 11 12 13 13 12 11 11 10 10 9 8 8 7 7 7 6 6 6 6 5 5 5 5 6 7 5 5 6 7 8 7 6 5 4 5 6 7 7 7 6 5 6 6 5 6 5 5 6 6 5 6 6 5 5 6 7 7 8 9 9 10 11 12 11 11 12 13 14 14 14 13 13
12 11 9 9 10 10 10 10 12 13 14 14 12 11 11 12 13 13 12 11 10 10 9 8 7 7 7 7 6 6 7 7 6 5 5 5 5 6 6 7 6 6 7 6 6 5 5 5 6 6 6 7 6 6 6 6 5 5 5 5 5 6 6 6 6 6 6 7 7 7 8 9 10 11 12 13 14 15 15 16 16 16 17 17 16
15 14 10 9 11 12 12 11 11 12 14 15 15 13 12 13 14 13 12 11 10 10 9 8 8 7 7 7 7 7 7 7 7 6 5 5 5 5 6 7 7 7 6 6 6 5 4 5 6 6 6 6 6 6 6 5 5 5 5 5 6 6 6 7 7 7 7 7 7 8 8 9 11 13 14 14 15 16 17 17 17 17 18 18 18
16 16 13 12 11 13 15 13 11 12 13 15 16 15 13 13 14 14 13 12 11 11 10 8 8 8 7 7 7 7 7 7 7 7 6 6 5 5 6 6 6 6 6 7 6 5 5 5 6 6 7 6 6 6 5 5 5 5 6 6 5 6 6 7 7 7 7 8 7 8 9 10 11 12 13 13 14 15 16 17 18 18 18 17 17
16 17 16 14 13 12 14 14 13 13 13 13 15 16 15 14 14 14 14 14 13 11 10 9 8 8 8 7 7 8 8 7 7 7 6 6 5 5 6 5 6 5 6 7 8 7 7 7 7 8 8 8 7 5 5 6 5 5 6 6 6 6 6 7 7 7 7 8 8 9 10 10 11 11 11 13 13 14 15 16 17 17 18 18 17
16 16 15 14 13 12 11 13 14 14 12 12 14 16 15 14 13 14 15 14 14 12 11 10 9 9 9 8 8 9 8 8 8 7 6 7 6 6 6 6 6 6 6 7 9 9 9 9 10 10 10 9 8 6 5 5 5 5 6 6 6 6 6 6 7 7 8 8 9 9 10 10 10 11 11 12 13 13 14 15 16 16 16 17 17
15 16 16 15 15 14 12 12 14 15 13 13 14 15 14 13 13 14 14 14 14 13 12 11 10 9 9 10 10 9 8 8 8 7 7 7 7 7 7 7 7 7 7 7 8 9 9 9 9 9 9 9 9 7 6 5 5 5 6 6 6 6 6 7 7 7 8 9 9 10 10 10 9 10 11 12 13 14 14 15 16 15 14 14 15
13 16 18 17 17 17 16 15 15 15 14 13 14 14 13 12 12 13 13 13 13 12 12 11 10 10 9 10 10 9 8 8 8 8 8 8 8 7 7 7 7 7 7 7 6 7 8 8 8 9 8 7 8 7 6 7 6 6 7 7 6 7 6 6 6 7 8 8 9 10 9 10 11 11 12 12 13 13 12 13 13 13 13 13 13
11 13 17 19 18 17 17 18 18 16 15 15 15 13 12 13 14 14 13 12 12 12 12 11 10 9 9 9 8 8 8 8 8 8 8 8 8 7 6 6 6 7 7 7 6 6 6 6 6 7 7 6 7 6 6 8 9 7 8 7 6 5 6 6 6 7 8 8 9 9 10 11 12 12 11 11 11 11 10 11 11 12 12 12 12
9 10 15 18 19 17 17 19 20 19 19 18 16 13 12 14 15 14 14 13 12 11 12 11 10 10 9 8 8 8 8 8 8 8 8 7 7 6 6 6 6 6 6 5 6 6 5 4 4 3 3 5 7 6 6 8 9 8 7 6 5 5 6 7 7 7 8 8 8 9 10 11 11 9 9 10 9 9 9 10 10 10 11 11 10
9 9 12 15 18 19 18 20 20 21 22 20 18 16 13 14 16 15 15 15 13 12 13 13 12 11 10 8 7 7 7 8 8 9 8 8 7 7 7 7 6 6 6 5 5 5 4 3 3 2 2 4 8 8 7 9 9 10 10 7 6 6 7 7 7 8 8 8 8 8 9 10 10 9 8 8 8 8 9 9 9 9 9 9 8
10 9 10 13 16 17 17 19 20 21 23 21 19 17 15 15 17 17 16 15 13 13 14 14 12 12 12 8 5 6 6 8 10 10 10 9 9 9 8 8 8 7 6 6 5 5 4 4 3 3 2 2 5 6 8 11 9 10 12 10 8 7 6 7 8 8 8 8 8 8 9 9 9 9 7 7 7 7 8 9 8 8 8 8 7
10 10 10 12 14 15 15 17 19 21 23 22 20 20 17 16 18 18 17 15 13 13 13 14 13 12 10 6 4 5 4 8 11 10 11 10 10 11 10 9 8 7 7 7 6 5 5 4 4 3 3 1 2 3 4 8 7 7 10 10 9 8 6 7 8 7 8 9 9 9 9 8 8 8 6 7 7 6 7 7 6 7 6 6 7
12 11 11 12 14 15 15 15 17 19 22 22 22 22 19 17 17 18 19 17 14 13 13 14 14 12 9 4 3 4 3 8 10 8 11 12 11 13 11 9 8 7 8 9 7 6 5 5 4 3 3 2 2 3 3 5 8 8 8 8 8 9 8 7 6 6 7 9 9 9 9 8 8 8 7 7 7 6 5 5 5 6 6 6 7
13 13 13 13 14 16 17 17 17 17 20 21 22 22 20 19 20 19 21 20 16 14 14 16 17 15 12 7 4 2 3 9 8 5 10 12 11 12 11 10 9 7 8 9 9 7 6 5 5 4 4 3 3 3 3 4 8 8 8 9 7 9 10 9 7 6 6 9 10 9 9 8 9 9 7 6 6 6 5 4 4 4 5 6 7
13 14 14 14 14 16 17 19 19 19 19 21 22 24 23 21 21 22 23 22 19 17 16 16 17 18 15 9 5 3 4 7 7 4 7 8 9 10 10 9 9 8 8 8 8 8 7 6 6 5 4 4 3 4 3 2 4 5 6 8 7 7 9 10 10 7 7 8 9 9 9 8 8 6 5 5 6 7 5 4 3 3 4 6 8
13 13 15 15 16 18 18 19 20 21 21 21 23 23 22 21 21 22 22 21 20 18 17 16 15 16 15 12 8 6 6 6 6 5 5 6 7 8 9 8 8 8 8 8 8 8 8 7 6 6 6 5 4 4 3 3 4 4 6 7 6 5 6 9 11 9 8 9 8 8 8 8 7 5 5 7 8 8 6 5 4 3 3 6 8
13 13 15 16 18 18 18 19 20 22 21 21 22 21 21 21 21 22 21 19 20 19 18 17 16 15 14 13 12 10 8 6 5 5 4 5 6 7 9 9 8 8 8 8 8 8 8 8 7 7 6 6 5 5 4 3 4 5 6 7 7 6 5 8 11 10 10 10 10 9 8 7 7 6 7 8 8 9 8 6 5 4 4 7 8
11 12 14 16 17 18 18 19 20 21 21 20 20 20 21 20 20 22 22 19 19 20 19 16 15 16 14 13 14 13 10 8 6 6 5 4 5 7 10 11 9 8 9 9 9 9 9 8 7 7 6 6 6 6 5 5 5 5 6 8 9 9 7 7 8 9 10 11 10 9 7 7 7 9 10 9 9 10 8 8 8 6 6 6 7
10 11 13 15 17 18 18 18 18 20 21 20 20 20 21 19 19 20 21 20 19 19 19 17 16 16 15 15 16 13 10 9 8 8 7 4 4 6 9 11 10 9 11 10 9 9 9 8 8 7 6 6 6 6 6 5 6 7 8 8 10 11 10 8 7 8 10 11 10 7 5 7 9 10 11 10 11 9 7 9 9 8 7 6 7
9 9 12 15 17 18 18 18 18 19 20 20 20 21 21 19 19 18 17 18 19 17 18 20 19 18 16 16 15 11 9 7 6 7 8 7 6 5 8 10 8 9 10 10 8 8 9 8 8 7 7 6 6 6 6 5 6 8 9 9 10 11 12 11 8 7 9 11 11 8 5 7 10 12 12 11 11 9 8 9 9 8 8 7 8
9 8 10 13 16 18 19 19 19 20 21 20 19 20 20 19 18 17 15 15 16 17 18 20 21 19 15 15 14 13 12 9 7 8 7 7 7 6 7 9 8 8 10 10 9 9 9 8 7 7 7 7 7 7 7 6 7 9 9 8 9 11 11 11 10 8 9 10 9 9 7 7 10 13 12 11 11 11 10 10 8 9 9 8 9
10 9 9 11 14 17 19 19 19 19 20 20 18 18 19 18 17 15 14 13 14 17 18 19 19 18 14 15 16 16 16 13 10 9 7 8 8 7 7 7 7 8 9 10 10 9 9 9 8 8 7 7 7 6 6 6 6 10 10 8 8 10 11 11 11 10 10 10 8 8 8 8 10 14 12 10 11 12 11 9 8 9 9 9 10
11 9 8 10 13 16 18 18 18 18 18 19 19 18 18 17 16 15 15 14 15 17 18 17 18 18 16 15 15 15 14 13 10 8 8 9 8 8 8 6 5 6 7 8 9 9 9 9 8 8 8 7 6 5 5 6 7 10 9 8 7 9 10 10 10 10 11 10 8 7 6 7 12 15 12 11 13 12 10 9 9 9 9 10 10
11 9 8 10 12 14 16 17 19 20 19 20 19 18 18 17 16 15 15 15 14 15 17 18 18 17 15 14 14 14 12 10 10 9 8 8 8 9 9 8 6 5 5 6 7 8 9 9 9 8 8 7 6 5 5 6 7 7 6 7 6 7 9 10 9 10 10 10 9 8 7 9 13 13 13 13 13 11 10 9 9 9 9 10 10
11 10 10 11 11 13 15 16 18 19 19 19 18 18 18 18 17 16 16 15 13 14 16 16 15 14 14 13 13 14 12 10 10 9 8 8 9 9 9 9 8 6 6 6 6 8 10 9 8 9 9 8 7 5 4 5 7 5 4 5 5 5 8 8 9 10 9 10 10 9 10 11 10 11 12 12 11 10 9 9 9 9 9 9 10
11 10 12 13 12 12 13 15 17 18 18 17 18 18 17 16 16 17 18 17 16 17 17 15 15 15 15 13 14 15 13 12 10 9 9 9 9 9 9 9 8 7 6 5 4 6 10 9 8 9 10 9 7 6 5 5 7 7 5 4 5 6 7 6 9 9 8 10 11 10 11 11 9 10 11 10 10 9 8 9 9 8 9 9 8
11 9 10 13 14 13 13 14 16 17 17 17 18 18 16 15 16 17 17 17 18 18 17 17 17 16 14 13 15 14 12 12 11 9 10 10 9 9 9 8 8 7 6 3 4 4 7 10 8 8 10 10 8 7 6 4 5 10 7 4 5 7 7 9 10 9 8 10 13 12 11 11 10 10 10 10 10 9 8 9 9 9 9 9 8
9 8 7 10 12 12 13 14 16 17 16 17 17 17 17 16 17 16 15 17 18 17 16 17 17 16 14 15 15 12 10 10 10 10 10 9 9 9 9 9 8 6 7 4 5 5 7 9 9 9 9 10 9 9 8 6 7 11 8 5 6 7 7 8 11 11 9 10 13 12 10 10 9 9 9 10 10 9 9 9 9 9 9 9 8
9 8 6 6 8 10 13 14 15 16 16 16 16 16 17 16 15 15 14 15 17 16 15 15 15 14 14 15 14 11 10 10 10 10 10 9 9 10 9 10 9 8 8 6 7 8 7 8 9 9 10 9 9 9 9 8 8 10 9 7 7 8 7 7 10 12 12 10 11 11 9 8 8 8 9 10 10 9 9 9 9 10 10 9 9
9 7 7 6 6 8 12 12 12 14 15 16 16 17 16 14 13 15 15 15 15 14 13 13 13 12 12 13 12 11 10 10 10 10 10 10 10 11 11 11 10 10 10 7 9 10 9 9 9 9 9 8 8 9 9 9 9 9 8 8 8 7 7 8 8 11 12 12 10 9 8 8 8 9 10 10 10 10 10 10 10 10 10 10 10
9 8 9 8 6 8 12 13 14 13 13 14 15 14 15 14 14 14 16 16 15 14 13 13 13 13 12 12 11 11 10 10 10 10 10 11 11 12 12 11 10 12 10 7 8 11 11 10 10 9 9 8 7 8 8 8 9 9 8 8 8 7 7 7 8 9 11 12 11 9 8 8 8 10 11 11 11 11 11 11 11 11 11 11 11
9 9 11 10 9 12 13 14 15 14 12 13 13 13 14 15 15 14 14 15 14 14 13 13 13 13 12 12 11 10 10 10 10 10 10 11 12 11 12 11 10 12 11 7 7 9 11 10 9 8 9 8 7 8 8 8 8 8 8 8 8 8 7 7 7 8 8 9 10 10 9 9 9 11 12 13 13 12 12 12 12 12 12 12 12
8 9 10 11 13 15 15 13 14 16 15 13 13 13 14 15 14 13 12 12 12 12 11 11 12 11 11 11 11 11 11 10 10 11 11 11 12 11 11 12 12 11 10 9 8 8 9 9 9 7 7 8 7 7 8 8 8 8 8 8 8 8 8 7 7 7 8 8 9 10 10 10 10 11 13 14 14 14 14 14 14 14 14 14 14
7 8 8 9 11 14 14 15 15 15 13 12 11 12 13 12 11 11 10 9 10 10 10 10 10 10 11 11 11 11 11 11 11 11 11 11 11 10 9 10 12 12 11 9 8 8 8 8 9 8 7 8 8 7 8 8 7 7 8 8 8 8 8 8 8 8 8 8 9 9 9 10 11 12 13 15 15 16 16 16 16 16 16 16 16
6 6 6 8 8 9 10 13 14 13 11 11 11 10 11 10 9 9 9 9 10 10 9 9 9 9 10 10 11 11 11 11 11 11 11 10 9 9 8 7 9 11 10 9 9 9 8 8 8 8 8 8 8 7 8 8 7 7 7 8 9 9 9 8 8 8 8 8 9 9 9 10 11 12 12 14 16 17 18 18 18 18 19 19 20
5 4 4 5 6 6 8 9 11 12 11 10 9 9 9 9 8 8 9 10 11 10 9 9 9 9 9 9 10 11 10 10 10 10 10 10 8 9 9 8 8 10 10 9 9 9 9 8 8 8 8 8 8 6 6 7 7 7 7 7 7 8 9 9 9 8 8 8 9 8 9 10 12 13 13 14 15 17 18 20 20 21 22 22 22
3 4 4 4 4 7 12 11 8 8 9 8 8 9 9 8 9 9 10 11 11 10 10 10 9 9 9 9 10 11 11 10 11 11 11 10 9 8 9 9 8 9 9 9 9 9 9 9 8 8 7 7 8 7 7 8 8 7 6 7 7 7 8 8 8 8 7 7 8 8 8 8 10 11 12 12 13 14 15 17 20 22 24 25 25
2 5 6 5 3 4 9 12 8 7 9 9 9 10 9 9 10 10 11 11 10 10 10 10 10 9 9 10 11 11 10 10 11 11 11 12 10 9 9 9 8 8 9 9 9 9 9 9 8 7 7 7 7 7 8 8 7 6 6 7 8 7 7 7 7 7 5 6 6 7 8 8 8 9 9 10 10 10 9 11 14 16 17 19 22
3 5 7 7 7 4 4 7 6 8 9 9 9 11 11 10 10 10 10 10 10 10 10 9 10 9 9 10 11 10 9 10 11 11 11 12 11 10 11 12 11 9 8 7 7 7 8 8 7 7 7 7 6 7 7 7 8 7 7 8 8 8 8 8 7 7 6 6 6 6 7 7 6 6 6 6 5 5 6 8 10 11 12 14 16
5 6 8 9 10 8 5 5 6 7 8 9 9 10 11 10 10 10 9 9 9 10 10 10 10 10 10 11 10 10 11 12 13 14 14 13 13 12 12 13 12 10 8 6 5 4 4 5 5 5 5 5 5 5 5 5 6 7 6 6 7 6 6 7 7 5 6 6 5 6 7 8 5 5 4 2 1 3 7 10 12 12 12 13 13
8 8 10 11 11 9 6 6 6 6 8 10 10 10 9 8 9 9 8 8 9 9 9 9 9 10 12 13 13 14 16 15 15 16 16 14 13 12 11 10 9 8 7 6 5 4 3 2 4 3 1 2 3 3 4 4 4 5 6 6 6 5 5 6 5 3 5 4 4 6 7 5 3 3 4 3 2 2 4 5 6 7 7 7 8
13 13 13 14 13 11 9 8 6 7 8 10 10 9 7 6 7 7 7 7 9 9 8 8 9 10 11 13 15 16 15 13 13 14 14 13 12 11 10 9 9 7 7 6 6 5 4 2 2 4 4 4 4 5 5 4 2 2 4 4 4 4 3 2 2 4 3 2 3 4 3 3 3 3 3 3 2 0 3 4 2 2 3 3 4
16 16 16 15 14 13 12 11 9 9 8 8 8 6 6 7 7 7 6 7 8 9 10 10 10 9 9 9 12 14 12 11 12 12 11 10 10 11 10 9 8 8 7 7 6 6 5 4 5 6 6 6 6 5 5 4 2 2 3 2 2 2 3 4 5 6 3 1 1 2 2 3 3 3 3 3 2 2 3 6 5 5 4 4 4
17 18 17 16 16 14 13 12 12 12 11 8 6 5 6 8 8 7 8 9 9 10 12 13 11 11 10 9 10 12 12 13 14 14 12 10 9 10 10 9 8 8 8 8 7 6 6 6 6 6 6 6 6 5 5 5 3 3 3 3 3 3 4 6 6 7 5 1 1 2 4 2 2 0 2 3 1 1 1 5 6 5 4 4 4
18 19 19 18 18 17 15 15 15 15 13 11 8 7 7 9 8 8 9 11 10 10 12 13 12 12 13 13 12 10 10 12 14 14 13 11 8 9 10 9 9 8 8 9 9 7 6 6 6 6 5 5 5 5 5 5 5 4 3 3 3 3 4 4 2 6 7 2 2 1 3 1 1 3 3 2 3 1 1 2 5 6 5 3 3
19 21 22 22 21 21 19 17 17 18 17 14 11 9 7 7 8 9 9 10 11 11 11 12 12 11 12 13 13 11 11 12 12 11 12 10 7 8 10 10 9 8 8 9 9 8 7 5 5 5 4 4 4 4 4 3 4 4 3 2 2 1 1 1 1 5 7 4 3 1 1 1 0 2 4 3 4 2 3 3 5 8 9 8 7
18 21 24 25 25 24 22 20 19 20 19 17 15 14 11 9 10 12 12 13 15 16 15 14 15 15 13 12 11 11 10 9 8 8 8 6 5 6 8 9 10 9 7 8 8 7 6 6 6 6 5 5 5 4 4 3 3 4 4 4 4 2 1 1 2 1 4 4 3 1 1 1 0 1 4 5 3 4 5 6 7 9 9 8 9
Wind_Direction
208 205 203 202 198 195 194 190 189 190 190 191 189 186 189 193 192 186 178 170 168 168 165 162 160 155 146 139 130 124 122 121 128 126 125 129 133 146 148 144 141 134 128 126 123 121 119 113 105 97 94 98 103 105 97 87 84 90 94 93 94 93 89 85 80 79 80 82 82 81 79 80 82 82 84 85 83 79 75 73 73 77 78 77 76
217 213 209 206 201 198 197 195 194 192 192 195 191 185 187 192 192 188 183 176 173 172 170 168 167 161 153 145 137 134 133 134 141 140 134 133 133 143 156 153 149 146 141 135 126 121 119 114 110 102 101 105 103 100 96 83 80 93 97 88 84 78 79 83 78 75 75 75 79 86 85 84 84 82 83 85 86 83 78 74 72 73 76 76 76
218 216 213 209 203 202 201 200 198 194 195 197 192 186 187 191 194 193 189 184 177 175 176 174 171 165 158 151 144 139 139 144 147 149 146 137 133 140 150 148 149 153 149 137 128 127 123 121 122 111 105 107 105 104 102 92 87 95 100 92 80 68 70 78 82 83 80 78 84 91 89 87 87 87 88 88 90 87 79 73 73 74 76 78 78
215 216 217 212 207 207 206 206 204 198 199 197 192 189 189 193 197 197 194 190 181 180 181 179 176 168 163 157 150 146 148 154 157 157 151 140 138 143 148 149 152 155 147 138 135 139 136 132 126 115 113 108 105 108 107 104 98 95 97 93 82 72 72 80 84 86 88 89 92 94 93 90 88 90 93 92 89 83 79 78 78 78 79 82 84
221 220 220 218 212 209 209 213 212 206 203 199 192 188 189 195 199 199 197 197 192 186 184 182 179 171 169 164 156 155 157 162 164 163 154 148 151 150 152 156 156 151 146 151 157 152 143 140 128 113 116 114 109 109 106 107 103 94 91 88 83 76 74 84 89 90 91 92 96 96 94 94 90 91 94 92 91 89 86 86 84 83 84 85 85
229 223 218 221 219 216 214 216 217 212 206 201 195 191 193 198 203 200 197 200 197 190 189 187 183 177 175 169 165 163 164 170 165 160 160 159 158 156 160 163 159 150 149 167 179 172 150 136 128 119 120 112 108 112 108 104 99 95 96 92 87 83 80 85 89 93 95 94 98 98 94 94 94 95 96 93 93 95 93 90 88 87 89 89 87
227 222 215 213 216 221 220 220 220 214 209 204 199 196 196 200 203 201 198 201 199 193 193 194 192 187 183 178 175 170 169 172 166 161 163 164 164 168 167 164 163 158 157 162 166 174 156 133 128 129 129 117 110 114 110 108 105 98 99 95 91 91 90 93 96 95 96 98 100 102 100 96 96 98 100 98 95 94 94 93 91 90 91 93 92
225 223 219 212 214 222 224 225 226 221 214 209 206 204 202 202 203 202 201 203 200 195 193 193 192 188 189 189 182 176 176 174 170 166 165 169 172 176 173 165 162 165 166 154 146 154 150 138 131 126 127 123 118 117 112 115 113 105 101 97 98 99 95 98 102 101 100 103 105 107 105 101 99 99 100 104 101 97 98 98 96 94 93 94 94
225 222 219 215 217 220 220 224 230 229 222 217 214 209 205 203 203 203 204 206 204 197 191 189 188 188 191 193 186 181 182 178 170 168 171 176 176 178 177 167 161 168 172 155 146 149 144 137 125 116 119 123 125 121 115 119 120 117 111 99 102 108 107 107 107 107 108 109 109 110 109 106 102 99 98 102 104 102 101 101 100 98 95 93 92
222 222 224 224 223 222 220 219 225 227 222 223 221 213 206 203 201 203 203 207 209 200 192 189 188 191 193 193 189 183 181 176 169 172 180 181 179 179 177 169 166 174 172 157 155 154 147 141 128 120 118 118 128 130 125 129 126 122 119 110 111 112 110 111 110 110 112 114 115 116 114 111 107 102 100 101 104 103 100 100 100 98 96 93 91
219 224 228 230 230 228 224 218 219 221 219 222 226 215 203 201 202 202 200 205 209 200 192 189 189 194 193 189 186 182 180 177 174 182 189 182 178 181 182 176 173 179 174 161 160 157 158 162 155 147 131 113 126 134 138 145 139 127 125 125 122 119 117 116 117 117 117 119 119 118 115 110 109 106 103 103 104 102 97 96 96 95 95 95 93
218 222 229 233 233 229 224 219 216 215 215 218 223 216 200 200 203 198 193 198 204 197 188 184 184 185 185 183 181 183 185 184 186 192 192 184 181 184 185 181 181 187 182 169 166 164 172 177 160 156 147 128 131 128 136 153 154 144 133 133 130 128 133 130 127 128 127 127 123 118 117 114 111 106 105 106 104 101 97 95 96 95 97 97 93
221 219 228 234 233 227 221 218 214 211 214 215 218 218 203 197 201 197 192 194 195 191 186 181 177 175 177 181 181 186 189 190 197 201 196 187 183 186 186 186 188 191 188 182 179 172 175 170 143 161 176 158 153 142 133 146 150 148 141 142 142 135 141 143 140 141 140 137 131 122 120 121 118 112 108 107 104 101 100 101 101 101 101 97 89
225 218 221 226 228 224 218 217 214 213 213 212 215 217 207 198 200 200 198 199 196 189 185 183 183 182 180 180 179 183 191 201 207 206 203 195 189 192 192 193 194 192 193 192 191 183 181 172 148 181 224 179 170 168 157 149 145 143 143 143 145 141 142 148 146 146 147 144 140 133 126 127 124 120 115 109 108 106 103 105 106 104 102 94 85
227 219 216 219 222 220 218 217 215 214 211 207 210 212 206 201 200 195 192 199 201 193 189 192 196 189 185 189 187 180 191 206 211 212 211 203 197 200 199 200 199 195 198 197 196 195 188 187 177 187 221 201 172 175 169 163 156 146 144 145 148 149 151 154 154 156 156 152 148 145 137 135 130 124 122 117 114 112 109 109 108 102 96 88 79
234 227 221 219 221 220 221 219 215 215 210 202 204 207 203 202 201 193 190 193 199 198 197 204 210 201 192 190 179 188 203 201 200 207 209 203 201 204 205 206 201 194 204 204 199 198 189 194 205 192 194 223 183 177 174 164 158 149 150 156 154 151 156 160 168 175 166 158 156 155 150 145 141 136 137 130 121 119 117 113 109 101 88 80 77
243 238 230 224 226 225 223 221 215 214 207 198 201 204 199 201 200 195 192 191 191 197 201 209 218 216 204 190 181 206 215 187 185 197 202 198 200 203 205 207 201 198 205 198 194 199 191 191 206 197 184 213 195 187 216 172 160 160 161 163 156 152 159 166 178 188 174 167 164 161 158 158 158 155 152 140 129 127 123 117 112 97 79 74 80
247 243 238 230 226 224 221 220 215 211 204 198 201 201 197 200 201 199 197 191 184 186 197 205 214 218 216 218 211 215 202 180 176 189 194 192 196 199 202 204 198 202 205 192 189 197 194 190 197 199 191 203 199 194 224 176 161 171 169 161 153 151 159 166 178 186 180 175 171 170 171 169 167 159 154 151 141 139 137 131 119 92 77 78 87
248 245 242 235 229 225 223 220 215 211 204 198 200 202 201 202 203 203 203 199 191 190 197 200 208 215 221 226 212 217 226 195 186 185 177 184 196 195 197 201 193 197 204 194 191 195 192 190 192 198 197 199 205 200 210 176 168 181 167 160 156 153 160 169 178 186 187 182 176 179 181 175 171 164 163 164 150 148 159 164 140 101 84 89 92
247 246 244 239 235 233 228 222 216 211 206 201 200 201 202 202 203 204 204 206 204 202 204 204 206 210 214 218 216 220 225 209 213 216 177 167 186 193 192 193 191 194 200 199 198 197 190 190 193 196 196 195 205 209 203 197 193 177 166 171 169 164 171 174 180 185 186 189 190 193 195 185 184 185 174 167 154 155 175 184 163 133 108 101 96
247 246 246 243 242 239 231 225 218 212 209 203 199 198 200 200 201 203 202 203 206 206 208 210 212 209 204 207 212 208 198 196 214 223 209 176 174 186 185 184 194 197 194 195 197 197 191 189 193 193 192 193 199 207 206 212 209 180 177 187 179 181 194 182 183 189 190 192 200 212 212 191 188 185 171 167 159 161 175 181 173 155 125 109 103
248 247 248 244 241 236 228 224 220 213 211 206 199 197 200 200 200 202 201 200 203 207 212 214 216 217 209 204 209 203 189 188 193 197 211 207 180 180 181 183 190 186 187 191 189 191 190 185 188 193 193 193 198 206 206 205 209 198 194 194 188 194 203 195 190 194 197 199 208 225 221 191 186 178 169 168 162 164 169 162 159 151 131 119 114
248 249 249 244 238 233 228 226 220 212 210 208 202 196 198 201 200 202 204 206 208 210 215 217 219 224 218 210 211 204 191 191 191 187 190 199 188 172 179 186 183 178 183 187 183 183 186 186 188 191 189 191 195 203 209 204 201 208 210 202 195 197 203 208 208 204 208 213 218 230 216 187 185 177 173 171 165 168 166 153 154 150 138 130 124
245 244 247 246 240 232 228 228 222 213 208 204 201 197 198 201 200 201 203 208 211 210 215 219 221 224 221 217 216 204 199 204 199 196 188 185 188 170 176 184 175 172 174 176 180 182 185 187 186 188 189 193 197 198 206 207 210 216 212 207 202 197 202 209 213 218 221 220 222 225 208 190 190 182 176 173 168 171 168 160 161 156 146 140 135
245 239 241 246 244 233 225 224 223 221 215 207 201 198 199 200 199 199 198 202 206 206 214 219 219 221 220 219 216 203 203 206 198 204 192 179 189 177 170 175 167 164 167 176 184 181 186 188 184 190 192 195 199 202 205 199 218 226 208 207 215 202 203 209 211 222 224 218 222 219 211 210 199 182 174 175 172 171 173 171 169 162 154 150 146
250 245 243 246 246 234 224 220 220 218 213 207 200 193 197 200 197 195 194 198 203 206 214 217 218 223 221 216 211 202 207 210 197 194 187 183 192 177 160 165 168 164 168 184 186 181 186 185 184 188 188 196 194 194 204 195 224 237 207 198 221 209 204 209 210 217 220 217 213 208 219 229 202 179 171 182 180 174 178 179 171 167 164 159 156
249 250 251 250 246 235 224 217 214 206 198 199 198 191 194 200 197 196 200 205 208 209 213 217 221 226 222 215 209 202 208 211 196 188 192 190 187 177 166 162 166 167 175 188 191 191 184 176 183 184 179 190 186 185 196 188 227 242 207 193 226 221 211 214 214 217 222 219 206 208 223 207 185 175 172 184 185 180 181 181 176 174 171 167 166
241 243 242 241 242 236 223 211 206 201 198 200 198 193 194 196 197 200 205 211 213 209 210 214 219 222 217 211 208 204 203 201 194 194 197 192 183 182 181 178 175 174 182 189 196 197 183 175 180 179 179 180 176 194 191 187 233 240 196 197 227 230 224 222 216 214 220 215 203 211 203 176 175 175 172 177 182 183 183 183 182 179 177 175 175
228 230 227 220 219 225 218 204 200 202 202 198 191 188 190 192 197 201 204 208 209 205 204 206 208 211 212 209 206 206 200 193 196 196 192 193 189 187 192 196 193 188 187 186 193 191 183 185 179 168 179 176 169 185 171 197 229 199 170 204 203 222 240 228 209 206 213 206 196 200 193 181 179 176 175 177 180 185 187 189 188 184 183 181 183
215 224 226 209 194 203 209 201 200 203 200 193 185 183 185 189 195 200 202 200 199 201 202 200 201 202 206 209 209 208 196 187 192 192 189 192 191 192 198 203 208 219 212 180 171 182 178 186 181 163 173 172 165 170 156 201 210 159 156 190 175 218 237 197 187 194 196 190 183 184 185 183 182 178 180 181 181 189 193 193 193 190 188 188 192
212 217 223 206 189 189 199 201 201 199 195 191 186 182 182 188 190 190 194 194 192 198 199 196 198 197 196 201 208 209 194 184 188 187 189 192 191 196 199 199 211 236 236 172 132 178 178 175 170 159 166 163 158 159 148 176 176 141 145 175 178 210 201 164 172 176 171 170 170 175 178 181 186 185 185 185 187 195 197 195 196 193 192 195 200
211 207 212 208 191 183 191 201 201 196 191 191 191 186 183 188 187 182 187 190 188 193 195 191 192 193 191 194 201 204 193 186 188 186 191 193 193 200 198 198 204 215 225 198 145 159 166 162 160 153 157 155 151 154 148 155 154 133 136 169 165 161 157 166 178 172 164 162 163 170 176 181 190 192 191 192 195 199 198 198 198 195 198 202 204
211 204 195 202 195 182 191 203 203 197 191 189 190 190 187 188 185 176 179 186 186 191 195 189 187 189 189 190 194 195 189 188 188 188 193 191 193 200 197 199 198 191 205 200 143 140 145 150 156 152 154 158 154 154 152 155 158 143 142 158 151 142 148 169 176 168 164 162 163 168 176 187 199 201 199 198 199 202 201 201 200 198 203 204 206
209 198 180 188 204 198 201 209 209 203 198 193 190 189 186 183 179 175 177 184 186 192 196 190 186 186 186 188 190 187 187 191 190 191 193 191 194 198 198 202 195 183 198 192 148 147 150 148 153 151 156 164 158 158 159 159 163 158 154 159 159 160 164 163 167 170 167 169 174 176 183 195 201 202 203 201 202 204 203 204 204 203 206 207 208
201 188 178 179 198 212 216 219 218 210 202 199 194 188 183 177 173 175 180 186 189 191 192 188 183 182 181 184 185 184 187 190 190 192 192 193 200 200 197 202 188 171 188 200 161 154 153 152 157 155 157 166 162 161 166 163 164 168 167 167 167 167 168 168 174 178 176 177 184 191 199 205 206 205 207 207 207 209 208 210 210 209 212 214 214
192 178 171 170 188 208 213 214 219 216 206 202 195 186 181 175 171 175 179 183 188 189 187 183 179 177 177 181 182 183 187 188 189 193 193 195 205 205 194 192 183 168 173 187 171 158 155 157 163 159 157 166 168 164 167 166 169 174 175 175 174 171 174 177 177 186 196 193 192 204 212 213 215 214 213 213 214 216 216 217 218 218 220 222 223
192 180 174 177 192 203 198 191 204 209 202 199 191 181 178 174 173 176 177 180 186 188 184 179 176 173 173 178 181 182 187 189 189 192 194 196 202 207 196 183 177 171 169 174 172 165 164 162 162 164 165 168 170 170 174 173 173 179 181 180 183 180 179 181 181 198 220 217 207 216 221 223 226 223 221 220 219 221 224 225 226 227 228 231 232
202 190 185 186 194 199 189 180 190 198 193 190 187 181 177 175 175 175 175 179 182 183 182 175 172 173 171 176 181 183 187 190 189 189 190 192 199 205 199 183 174 167 165 172 172 169 175 172 165 172 179 177 176 179 184 184 179 181 180 180 188 188 185 188 190 197 217 225 225 230 233 233 236 234 232 231 229 231 231 232 233 235 236 238 240
212 205 201 198 194 189 179 176 180 179 180 187 187 182 181 178 180 179 175 177 176 174 174 168 166 170 171 174 178 180 187 188 186 187 184 186 196 197 190 188 179 165 165 176 175 174 185 187 180 183 186 185 188 191 191 192 191 190 187 185 189 190 190 198 198 191 196 210 227 243 249 248 248 249 247 242 241 241 240 239 240 240 242 244 246
224 216 203 194 185 168 156 167 175 168 173 188 182 181 189 185 182 181 176 175 172 167 167 165 165 167 167 172 175 177 185 186 180 181 181 180 187 186 179 181 178 169 172 181 183 186 193 194 194 192 188 187 191 191 188 190 198 205 203 200 197 189 187 197 204 201 199 203 216 234 246 250 251 253 256 253 250 249 248 247 248 247 247 248 249
217 190 177 163 174 178 164 164 175 166 162 175 180 185 194 187 179 178 175 173 169 165 167 167 165 163 158 161 170 176 184 184 176 177 180 177 174 173 174 175 175 177 182 185 190 197 200 200 201 196 194 197 194 190 191 197 205 207 200 205 213 201 191 198 203 205 211 214 219 227 229 231 236 240 245 250 253 257 258 256 256 256 254 254 255
179 186 189 168 165 206 177 166 182 193 173 176 189 191 189 183 179 176 174 174 172 170 172 171 167 161 155 164 176 179 182 183 181 182 187 184 180 178 176 175 177 183 188 192 196 200 202 205 204 199 204 208 197 193 196 197 201 199 191 202 214 208 204 211 199 188 208 228 225 230 226 217 223 232 232 236 245 254 262 261 261 263 264 263 261
161 178 184 169 154 164 169 160 187 210 195 190 194 186 180 179 178 176 176 177 175 175 177 176 170 160 153 162 173 175 177 178 174 172 172 171 171 173 170 167 167 168 174 183 189 196 209 213 204 205 217 210 192 194 196 189 191 197 199 206 215 212 211 223 214 185 197 222 219 231 229 204 211 242 240 233 228 214 220 235 243 252 260 262 263
156 157 154 159 162 163 162 170 194 203 190 186 184 178 179 182 183 183 182 179 179 180 179 178 172 162 152 148 145 148 155 154 148 146 144 142 143 146 147 151 155 157 158 157 157 173 209 224 211 211 224 211 189 188 187 183 183 190 195 200 210 215 215 239 245 189 174 202 213 234 228 193 196 244 222 170 123 204 218 231 240 247 253 258 262
129 128 124 133 152 161 152 156 173 173 170 174 175 173 178 186 187 187 184 180 180 179 177 174 170 166 158 146 137 139 142 138 136 139 139 135 133 132 131 134 137 140 145 146 144 144 158 216 210 194 192 185 172 152 144 154 164 181 201 200 199 209 216 238 251 161 151 194 224 249 241 179 164 243 200 137 61 267 248 247 248 258 261 265 270
110 111 110 112 123 131 123 118 128 138 149 161 166 168 174 177 175 174 171 170 167 163 161 158 155 156 153 144 139 138 134 131 134 137 135 132 128 121 115 113 114 117 128 137 140 133 122 126 157 137 107 109 124 128 139 150 157 196 223 213 195 201 200 190 159 135 150 199 219 268 275 143 163 236 187 124 102 109 326 339 356 326 307 298 298
99 105 106 101 103 110 108 101 102 107 119 138 150 160 169 162 150 138 132 137 138 133 127 123 121 123 125 129 135 134 132 137 142 139 136 135 130 124 116 112 123 139 146 146 145 140 130 123 126 129 129 128 128 136 151 155 160 203 217 201 184 191 174 169 166 151 152 200 188 266 264 154 181 220 140 112 122 110 5 349 10 19 359 353 347
88 97 102 96 91 96 101 98 94 94 99 108 117 128 144 146 136 119 111 114 113 111 114 114 117 121 118 116 126 133 143 156 154 146 142 141 136 133 125 119 132 147 147 147 150 153 155 156 153 153 158 157 156 167 180 176 166 177 197 195 193 204 208 215 198 151 131 93 46 307 268 177 107 308 148 137 170 140 46 350 354 360 347 333 322
70 78 87 88 85 87 93 92 86 86 90 94 100 114 128 127 116 105 112 121 119 115 121 132 141 141 132 127 125 125 144 163 162 152 147 146 147 146 137 128 133 136 136 143 149 152 159 166 168 168 168 165 166 175 189 190 172 165 188 200 193 204 219 243 237 119 112 75 32 5 279 257 67 303 270 174 170 184 124 21 6 9 12 5 349
63 70 77 80 80 80 83 84 82 82 84 88 96 107 116 113 101 92 100 114 110 98 102 116 120 115 115 122 128 135 150 161 162 158 154 149 152 157 149 142 144 143 140 145 148 149 151 153 151 151 149 145 145 151 161 175 171 162 170 172 156 197 254 305 16 109 115 81 28 45 273 275 85 312 296 236 186 149 86 78 55 35 27 23 22
63 70 74 77 78 77 77 79 80 80 81 86 94 97 97 96 94 87 86 92 94 91 92 95 97 100 102 104 113 129 141 143 144 153 158 154 154 160 157 154 154 153 147 144 142 137 132 132 134 136 138 133 127 133 141 146 156 160 168 167 140 77 10 46 41 137 135 94 46 23 343 312 272 337 313 283 229 145 113 92 70 51 38 26 15